TimeGMT,TemperatureF,Dew PointF,Humidity,Sea Level PressureIn,VisibilityMPH,Wind Direction,Wind SpeedMPH,Gust SpeedMPH,PrecipitationIn,Events,Conditions,WindDirDegrees,DateUTC
12:20 AM,32.0,30.2,93,29.95,6.2,Variable,2.3,-,N/A,,Unknown,0,2012-11-12 00:20:00
12:50 AM,30.2,28.4,93,29.92,-9999.0,Variable,2.3,-,N/A,,Clear,0,2012-11-12 00:50:00
1:20 AM,32.0,28.4,87,29.92,6.2,West,4.6,-,N/A,,Unknown,270,2012-11-12 01:20:00
1:50 AM,30.2,30.2,100,29.92,-9999.0,North,3.5,-,N/A,,Clear,10,2012-11-12 01:50:00
2:20 AM,30.2,28.4,93,29.95,6.2,ESE,2.3,-,N/A,,Unknown,110,2012-11-12 02:20:00
2:50 AM,31,29,89,29.94,13,NNE,1.2,,,,,30,2012-11-12 02:50:00
2:50 AM,28.4,28.4,100,29.92,6.2,North,2.3,-,N/A,,Unknown,350,2012-11-12 02:50:00
3:20 AM,28.4,26.6,93,29.92,6.2,Variable,2.3,-,N/A,,Unknown,0,2012-11-12 03:20:00
3:50 AM,28.4,28.4,100,29.92,-9999.0,Variable,2.3,-,N/A,,Clear,0,2012-11-12 03:50:00
4:20 AM,28.4,28.4,100,29.92,-9999.0,Variable,2.3,-,N/A,,Clear,0,2012-11-12 04:20:00
4:50 AM,26.6,26.6,100,29.92,-9999.0,Calm,Calm,-,N/A,,Clear,0,2012-11-12 04:50:00
5:20 AM,26.6,24.8,93,29.92,6.2,NW,2.3,-,N/A,,Unknown,320,2012-11-12 05:20:00
5:50 AM,27,26,96,29.94,13,North,1.2,,,,,350,2012-11-12 05:50:00
5:50 AM,26.6,26.6,100,29.92,-9999.0,Calm,Calm,-,N/A,,Clear,0,2012-11-12 05:50:00
6:20 AM,26.6,26.6,100,29.92,-9999.0,Calm,Calm,-,N/A,,Clear,0,2012-11-12 06:20:00
6:50 AM,26.6,26.6,100,29.92,-9999.0,Calm,Calm,-,N/A,,Clear,0,2012-11-12 06:50:00
7:20 AM,28.4,26.6,93,29.92,6.2,Calm,Calm,-,N/A,,Partly Cloudy,0,2012-11-12 07:20:00
7:50 AM,28.4,26.6,93,29.92,6.2,Calm,Calm,-,N/A,,Partly Cloudy,0,2012-11-12 07:50:00
8:20 AM,28.4,28.4,100,29.92,-9999.0,Calm,Calm,-,N/A,,Clear,0,2012-11-12 08:20:00
8:50 AM,37,34,84,29.92,13,East,1.2,,,,,100,2012-11-12 08:50:00
8:50 AM,32.0,30.2,93,29.92,6.2,Calm,Calm,-,N/A,,Partly Cloudy,0,2012-11-12 08:50:00
9:20 AM,35.6,32.0,87,29.89,6.2,Variable,3.5,-,N/A,,Scattered Clouds,0,2012-11-12 09:20:00
9:50 AM,41.0,39.2,93,29.89,6.2,South,9.2,-,N/A,,Scattered Clouds,180,2012-11-12 09:50:00
10:20 AM,42.8,39.2,87,29.89,6.2,South,11.5,-,N/A,,Scattered Clouds,180,2012-11-12 10:20:00
10:50 AM,42.8,41.0,93,29.89,6.2,South,11.5,-,N/A,,Scattered Clouds,180,2012-11-12 10:50:00
11:20 AM,44.6,41.0,87,29.86,6.2,South,10.4,-,N/A,,Scattered Clouds,170,2012-11-12 11:20:00
11:50 AM,47,42,77,29.86,14,SSE,13.8,,,,Partly Cloudy,160,2012-11-12 11:50:00
11:50 AM,46.4,42.8,87,29.86,6.2,SSE,13.8,-,N/A,,Mostly Cloudy,160,2012-11-12 11:50:00
12:20 PM,46.4,42.8,87,29.86,6.2,South,13.8,-,N/A,Rain,Light Rain,170,2012-11-12 12:20:00
12:50 PM,46.4,42.8,87,29.83,6.2,South,11.5,-,N/A,Rain,Light Rain,170,2012-11-12 12:50:00
1:20 PM,46.4,42.8,87,29.83,6.2,South,12.7,-,N/A,Rain,Light Rain,180,2012-11-12 13:20:00
1:50 PM,46.4,42.8,87,29.80,6.2,South,15.0,-,N/A,Rain,Light Rain,170,2012-11-12 13:50:00
2:20 PM,46.4,44.6,93,29.80,6.2,South,13.8,-,N/A,Rain,Light Rain,170,2012-11-12 14:20:00
2:50 PM,46,44,91,29.82,17,South,18.4,,,Rain,Rain,180,2012-11-12 14:50:00
2:50 PM,46.4,44.6,93,29.80,6.2,South,12.7,-,N/A,,Light Drizzle,170,2012-11-12 14:50:00
3:20 PM,46.4,44.6,93,29.80,4.3,South,11.5,-,N/A,,Light Drizzle,180,2012-11-12 15:20:00
3:50 PM,46.4,44.6,93,29.80,4.3,South,12.7,-,N/A,,Mostly Cloudy,190,2012-11-12 15:50:00
4:20 PM,46.4,44.6,93,29.80,4.3,South,11.5,-,N/A,Rain,Light Rain,190,2012-11-12 16:20:00
4:50 PM,46.4,44.6,93,29.80,6.2,South,10.4,-,N/A,Rain,Rain,180,2012-11-12 16:50:00
5:20 PM,46.4,44.6,93,29.80,6.2,South,11.5,-,N/A,Rain,Light Rain,180,2012-11-12 17:20:00
5:50 PM,46,45,95,29.81,12,South,15.0,,,Rain,Rain,190,2012-11-12 17:50:00
5:50 PM,46.4,44.6,93,29.80,6.2,South,9.2,-,N/A,,Mostly Cloudy,180,2012-11-12 17:50:00
6:20 PM,46.4,44.6,93,29.80,6.2,South,11.5,-,N/A,,Mostly Cloudy,180,2012-11-12 18:20:00
6:50 PM,46.4,44.6,93,29.80,6.2,South,9.2,-,N/A,,Mostly Cloudy,170,2012-11-12 18:50:00
7:20 PM,46.4,44.6,93,29.80,6.2,South,10.4,-,N/A,,Mostly Cloudy,170,2012-11-12 19:20:00
7:50 PM,46.4,44.6,93,29.83,6.2,South,11.5,-,N/A,,Mostly Cloudy,170,2012-11-12 19:50:00
8:20 PM,46.4,44.6,93,29.80,6.2,South,12.7,-,N/A,,Mostly Cloudy,170,2012-11-12 20:20:00
8:50 PM,46,45,96,29.83,9,SE,3.5,,,,Mostly Cloudy,140,2012-11-12 20:50:00
8:50 PM,46.4,44.6,93,29.83,6.2,South,9.2,-,N/A,,Mostly Cloudy,170,2012-11-12 20:50:00
9:20 PM,46.4,44.6,93,29.83,6.2,South,6.9,-,N/A,,Scattered Clouds,190,2012-11-12 21:20:00
9:50 PM,44.6,42.8,93,29.83,6.2,Variable,3.5,-,N/A,,Partly Cloudy,0,2012-11-12 21:50:00
10:20 PM,44.6,42.8,93,29.83,5.6,WSW,4.6,-,N/A,,Partly Cloudy,250,2012-11-12 22:20:00
10:50 PM,51.8,48.2,88,29.83,-9999.0,SW,9.2,-,N/A,,Clear,220,2012-11-12 22:50:00
11:20 PM,51.8,48.2,88,29.86,6.2,SW,9.2,-,N/A,,Unknown,230,2012-11-12 23:20:00
11:50 PM,52,48,83,29.87,28,SW,12.7,,,,Scattered Clouds,220,2012-11-12 23:50:00
11:50 PM,51.8,48.2,88,29.86,-9999.0,SSW,10.4,-,N/A,,Clear,210,2012-11-12 23:50:00